QPF
0.00 0.00 0.00 0.00 0.00 0.02 0.02 0.00 0.00 0.00 0.00 0.01 0.02 0.02 0.01 0.00 0.00 0.00 0.00 0.00 0.00 0.00 0.00 0.00 0.00 0.00 0.00 0.03 0.02 0.00 0.00 0.02 0.03
0.04 0.01 0.00 0.00 0.00 0.00 0.00 0.00 0.00 0.00 0.00 0.00 0.01 0.00 0.00 0.00 0.00 0.00 0.00 0.00 0.00 0.00 0.00 0.00 0.00 0.00 0.01 0.03 0.01 0.00 0.01 0.03 0.01
0.03 0.03 0.01 0.00 0.00 0.00 0.00 0.00 0.00 0.00 0.00 0.00 0.00 0.00 0.00 0.00 0.00 0.00 0.00 0.00 0.00 0.00 0.00 0.00 0.00 0.01 0.02 0.01 0.00 0.00 0.01 0.01 0.01
0.01 0.03 0.04 0.02 0.01 0.01 0.00 0.00 0.00 0.00 0.00 0.00 0.00 0.00 0.00 0.00 0.00 0.00 0.00 0.00 0.00 0.00 0.00 0.00 0.00 0.03 0.00 0.01 0.00 0.02 0.01 0.00 0.00
0.00 0.00 0.02 0.05 0.07 0.05 0.00 0.00 0.00 0.00 0.00 0.00 0.00 0.00 0.00 0.00 0.00 0.00 0.00 0.00 0.00 0.00 0.01 0.01 0.02 0.01 0.00 0.00 0.00 0.03 0.01 0.00 0.00
0.00 0.00 0.00 0.02 0.09 0.16 0.07 0.01 0.00 0.00 0.00 0.00 0.00 0.00 0.00 0.00 0.00 0.00 0.00 0.00 0.00 0.00 0.00 0.02 0.01 0.00 0.00 0.00 0.00 0.03 0.01 0.00 0.00
0.00 0.00 0.00 0.01 0.02 0.11 0.19 0.07 0.00 0.00 0.00 0.00 0.00 0.00 0.00 0.00 0.00 0.00 0.00 0.00 0.00 0.00 0.00 0.01 0.00 0.00 0.00 0.00 0.01 0.02 0.01 0.00 0.00
0.00 0.01 0.00 0.01 0.00 0.00 0.04 0.06 0.00 0.00 0.01 0.00 0.00 0.00 0.00 0.00 0.00 0.00 0.00 0.00 0.00 0.00 0.01 0.01 0.00 0.00 0.00 0.00 0.01 0.01 0.00 0.00 0.00
0.03 0.09 0.07 0.02 0.00 0.01 0.03 0.05 0.05 0.01 0.01 0.01 0.00 0.00 0.00 0.00 0.00 0.00 0.00 0.00 0.02 0.02 0.05 0.03 0.00 0.00 0.00 0.00 0.01 0.01 0.00 0.00 0.00
0.02 0.07 0.08 0.11 0.13 0.06 0.04 0.12 0.11 0.04 0.01 0.00 0.00 0.00 0.00 0.00 0.00 0.00 0.00 0.00 0.02 0.08 0.05 0.04 0.00 0.00 0.00 0.01 0.00 0.00 0.00 0.00 0.00
0.00 0.03 0.04 0.07 0.11 0.12 0.11 0.07 0.03 0.01 0.01 0.01 0.01 0.00 0.00 0.00 0.00 0.00 0.00 0.00 0.00 0.05 0.10 0.06 0.03 0.00 0.00 0.02 0.01 0.00 0.00 0.00 0.00
0.02 0.02 0.03 0.05 0.07 0.08 0.10 0.09 0.06 0.01 0.00 0.00 0.01 0.01 0.00 0.00 0.00 0.00 0.00 0.00 0.00 0.01 0.05 0.07 0.06 0.02 0.00 0.01 0.02 0.00 0.00 0.00 0.00
0.00 0.00 0.01 0.04 0.05 0.05 0.05 0.04 0.04 0.03 0.01 0.00 0.01 0.03 0.02 0.00 0.01 0.01 0.00 0.00 0.00 0.00 0.01 0.09 0.14 0.08 0.04 0.05 0.04 0.01 0.00 0.00 0.00
0.00 0.00 0.00 0.00 0.05 0.06 0.06 0.03 0.02 0.01 0.01 0.01 0.01 0.02 0.03 0.02 0.01 0.01 0.00 0.00 0.00 0.00 0.00 0.02 0.05 0.10 0.10 0.08 0.10 0.03 0.00 0.00 0.00
0.00 0.00 0.00 0.00 0.00 0.03 0.07 0.05 0.02 0.01 0.02 0.03 0.05 0.04 0.03 0.03 0.02 0.02 0.00 0.00 0.00 0.00 0.00 0.01 0.00 0.00 0.07 0.11 0.12 0.09 0.01 0.00 0.00
0.00 0.00 0.00 0.00 0.00 0.00 0.01 0.05 0.06 0.04 0.03 0.06 0.07 0.07 0.07 0.05 0.03 0.03 0.01 0.00 0.00 0.00 0.00 0.00 0.00 0.00 0.00 0.04 0.11 0.11 0.05 0.00 0.00
0.00 0.00 0.00 0.00 0.00 0.00 0.00 0.00 0.03 0.05 0.05 0.05 0.06 0.06 0.05 0.05 0.03 0.03 0.02 0.01 0.00 0.00 0.00 0.00 0.00 0.00 0.00 0.00 0.02 0.08 0.10 0.04 0.00
0.00 0.00 0.00 0.00 0.00 0.00 0.00 0.00 0.00 0.01 0.05 0.08 0.07 0.05 0.02 0.01 0.01 0.01 0.01 0.01 0.00 0.00 0.00 0.00 0.00 0.00 0.00 0.00 0.01 0.02 0.07 0.13 0.08
0.00 0.00 0.00 0.00 0.00 0.00 0.00 0.00 0.00 0.00 0.01 0.03 0.06 0.05 0.03 0.01 0.01 0.00 0.00 0.01 0.01 0.00 0.00 0.00 0.00 0.00 0.00 0.00 0.00 0.00 0.01 0.04 0.10
0.00 0.00 0.00 0.00 0.00 0.00 0.00 0.00 0.00 0.00 0.00 0.00 0.00 0.01 0.02 0.01 0.00 0.00 0.00 0.01 0.01 0.01 0.00 0.00 0.00 0.00 0.00 0.00 0.00 0.00 0.00 0.01 0.02
MSLP
1015.44 1015.41 1015.55 1015.60 1015.66 1015.79 1016.00 1016.13 1016.36 1016.47 1016.73 1017.01 1017.23 1017.42 1017.62 1017.83 1018.12 1018.18 1018.29 1018.42 1018.59 1018.80 1018.98 1019.24 1019.31 1019.27 1019.54 1019.73 1019.88 1019.92 1020.20 1020.28 1020.42
1015.53 1015.64 1015.63 1015.73 1015.75 1015.79 1015.92 1016.12 1016.40 1016.60 1016.80 1017.02 1017.36 1017.61 1017.81 1017.94 1018.21 1018.28 1018.41 1018.55 1018.69 1018.93 1019.09 1019.31 1019.43 1019.60 1019.83 1019.90 1019.99 1020.30 1020.49 1020.61 1020.73
1015.40 1015.46 1015.73 1015.75 1015.72 1015.88 1015.91 1016.00 1016.25 1016.64 1016.89 1017.06 1017.40 1017.67 1017.90 1018.12 1018.26 1018.41 1018.46 1018.55 1018.83 1019.04 1019.22 1019.43 1019.49 1019.65 1019.90 1020.00 1020.38 1020.68 1020.77 1020.88 1020.90
1015.32 1015.42 1015.55 1015.77 1015.70 1015.71 1015.97 1016.02 1016.17 1016.58 1016.85 1017.11 1017.40 1017.81 1018.03 1018.33 1018.48 1018.49 1018.52 1018.63 1018.75 1019.06 1019.31 1019.49 1019.53 1019.76 1019.92 1020.21 1020.50 1020.88 1021.09 1021.18 1021.33
1015.23 1015.31 1015.55 1015.65 1015.89 1015.94 1015.78 1016.04 1016.18 1016.33 1016.72 1017.17 1017.40 1017.71 1018.01 1018.45 1018.62 1018.65 1018.54 1018.61 1018.75 1018.90 1019.17 1019.45 1019.67 1019.79 1019.99 1020.35 1020.62 1020.88 1021.07 1021.45 1021.67
1015.08 1015.17 1015.41 1015.46 1015.74 1015.97 1016.06 1016.02 1016.07 1016.27 1016.66 1016.98 1017.38 1017.81 1018.22 1018.39 1018.51 1018.69 1018.53 1018.51 1018.63 1018.87 1019.15 1019.41 1019.65 1019.79 1020.06 1020.44 1020.67 1020.99 1021.20 1021.56 1021.93
1014.88 1015.12 1015.23 1015.31 1015.50 1015.74 1015.96 1016.11 1016.34 1016.55 1016.74 1017.00 1017.25 1017.73 1018.24 1018.46 1018.49 1018.50 1018.43 1018.43 1018.48 1018.82 1019.20 1019.44 1019.58 1019.61 1020.01 1020.40 1020.74 1021.09 1021.21 1021.53 1021.85
1014.78 1014.99 1015.12 1015.30 1015.40 1015.60 1015.81 1016.07 1016.26 1016.63 1016.80 1016.95 1017.11 1017.30 1017.76 1018.21 1018.34 1018.29 1018.21 1018.13 1018.22 1018.62 1018.97 1019.31 1019.49 1019.58 1019.90 1020.27 1020.64 1020.95 1021.17 1021.42 1021.91
1014.64 1014.89 1014.97 1015.09 1015.24 1015.46 1015.57 1015.69 1016.01 1016.19 1016.54 1016.74 1016.81 1016.83 1017.11 1017.43 1017.67 1017.91 1017.94 1017.86 1017.81 1018.24 1018.65 1019.10 1019.30 1019.60 1019.83 1020.15 1020.56 1020.73 1021.07 1021.47 1021.81
1014.45 1014.60 1014.86 1015.01 1015.09 1015.13 1015.43 1015.76 1016.10 1016.25 1016.27 1016.39 1016.60 1016.35 1016.72 1016.77 1016.98 1017.26 1017.50 1017.52 1017.57 1017.86 1018.31 1018.73 1019.03 1019.39 1019.70 1019.94 1020.32 1020.59 1020.79 1021.20 1021.54
1014.55 1014.65 1014.67 1014.85 1015.03 1015.04 1015.15 1015.44 1015.69 1016.07 1016.14 1016.12 1015.98 1016.08 1016.43 1016.61 1016.70 1016.87 1017.09 1017.11 1017.25 1017.43 1017.93 1018.26 1018.50 1018.93 1019.25 1019.61 1020.00 1020.34 1020.45 1020.86 1021.09
1014.67 1014.89 1014.95 1014.75 1014.88 1015.08 1015.23 1015.42 1015.63 1015.94 1015.89 1015.93 1015.80 1015.88 1016.08 1016.21 1016.40 1016.65 1016.90 1016.90 1016.88 1017.16 1017.48 1017.65 1018.12 1018.36 1018.71 1019.10 1019.53 1019.91 1020.18 1020.52 1020.91
1015.37 1015.40 1015.36 1015.09 1014.93 1014.99 1015.07 1015.28 1015.54 1015.77 1016.10 1015.92 1015.64 1015.71 1015.75 1015.64 1015.99 1016.18 1016.31 1016.63 1016.61 1016.94 1017.03 1017.35 1017.64 1017.96 1018.23 1018.51 1019.06 1019.51 1019.91 1020.26 1020.59
1016.62 1016.54 1016.36 1015.97 1015.23 1015.03 1015.00 1015.26 1015.17 1015.48 1015.51 1015.89 1015.48 1015.39 1015.59 1015.57 1015.40 1015.50 1015.69 1015.84 1016.19 1016.53 1016.68 1016.99 1017.19 1017.53 1017.81 1018.08 1018.45 1018.87 1019.42 1019.95 1020.39
1017.54 1017.28 1017.09 1016.85 1016.19 1015.59 1015.02 1014.84 1014.92 1014.99 1014.86 1015.39 1015.17 1014.98 1015.06 1015.16 1015.02 1015.07 1015.03 1015.34 1015.56 1016.00 1016.31 1016.58 1016.98 1017.10 1017.20 1017.47 1017.83 1018.28 1018.80 1019.39 1019.93
1018.36 1018.07 1017.88 1017.64 1017.22 1016.75 1016.26 1015.49 1014.58 1014.03 1014.18 1014.53 1014.53 1014.41 1014.76 1014.94 1014.94 1014.82 1014.78 1014.85 1015.01 1015.38 1015.76 1016.25 1016.56 1016.67 1016.81 1016.90 1017.15 1017.67 1018.09 1018.61 1019.20
1018.90 1018.93 1018.73 1018.50 1018.01 1017.65 1017.18 1016.66 1015.88 1014.94 1014.26 1014.32 1014.57 1014.02 1014.11 1014.10 1014.23 1014.42 1014.27 1014.32 1014.27 1014.81 1015.11 1015.50 1015.85 1016.25 1016.56 1016.73 1016.86 1017.10 1017.55 1017.87 1018.41
1019.86 1019.89 1019.62 1019.20 1018.81 1018.48 1018.09 1017.54 1017.01 1016.07 1014.82 1014.33 1013.97 1013.73 1013.31 1013.14 1013.34 1013.70 1013.79 1013.81 1013.89 1014.03 1014.37 1014.67 1015.06 1015.45 1015.81 1016.21 1016.55 1016.73 1016.87 1017.25 1017.48
1020.92 1020.80 1020.34 1020.05 1019.60 1019.10 1018.95 1018.45 1017.77 1017.09 1016.09 1015.06 1014.03 1013.72 1014.06 1012.96 1013.03 1012.47 1012.89 1012.91 1013.20 1013.51 1013.65 1013.99 1014.29 1014.70 1015.09 1015.44 1015.84 1016.07 1016.36 1016.52 1016.92
1021.79 1021.50 1020.93 1020.49 1020.14 1019.86 1019.60 1019.17 1018.60 1018.20 1017.71 1016.87 1015.89 1014.55 1014.20 1013.93 1014.27 1012.73 1012.34 1012.45 1012.59 1012.79 1013.15 1013.34 1013.69 1013.94 1014.23 1014.68 1015.12 1015.43 1015.58 1015.75 1016.12
Thickness
5687 5690 5690 5691 5693 5694 5694 5694 5694 5695 5694 5692 5691 5691 5691 5691 5689 5690 5689 5689 5688 5687 5687 5687 5687 5689 5688 5689 5689 5690 5690 5690 5690
5681 5682 5685 5686 5688 5690 5691 5691 5691 5691 5691 5690 5688 5687 5687 5688 5687 5688 5687 5687 5686 5685 5685 5684 5685 5685 5685 5685 5686 5686 5686 5686 5686
5679 5681 5681 5681 5684 5685 5687 5688 5688 5687 5686 5686 5685 5685 5684 5684 5684 5683 5684 5684 5683 5682 5682 5682 5683 5683 5683 5683 5682 5682 5682 5682 5683
5675 5676 5676 5678 5679 5682 5682 5683 5683 5683 5682 5682 5682 5681 5681 5679 5679 5679 5680 5680 5680 5679 5679 5679 5680 5680 5680 5679 5679 5678 5677 5678 5678
5671 5672 5670 5671 5672 5673 5677 5678 5678 5679 5678 5676 5677 5677 5677 5676 5674 5675 5677 5677 5676 5677 5676 5675 5676 5677 5677 5676 5675 5674 5673 5673 5672
5666 5668 5666 5667 5666 5667 5669 5672 5673 5673 5672 5672 5672 5671 5671 5672 5671 5671 5673 5674 5673 5673 5672 5672 5672 5673 5673 5671 5671 5670 5669 5668 5667
5662 5661 5662 5662 5661 5661 5661 5662 5664 5666 5666 5666 5667 5667 5667 5667 5666 5668 5670 5670 5670 5669 5668 5667 5667 5671 5669 5667 5666 5666 5665 5664 5664
5656 5656 5655 5656 5656 5656 5655 5656 5658 5659 5660 5660 5662 5664 5665 5664 5663 5664 5666 5667 5668 5665 5664 5662 5663 5665 5664 5664 5662 5661 5661 5660 5658
5648 5649 5650 5650 5651 5651 5652 5653 5653 5655 5654 5655 5656 5660 5662 5662 5661 5660 5661 5663 5665 5662 5661 5659 5659 5659 5659 5659 5658 5657 5657 5655 5653
5642 5642 5642 5644 5645 5646 5647 5646 5645 5645 5647 5648 5650 5655 5654 5657 5658 5658 5657 5659 5660 5659 5658 5657 5655 5654 5654 5654 5653 5653 5654 5651 5650
5633 5634 5634 5635 5637 5639 5640 5640 5640 5639 5638 5641 5647 5649 5648 5648 5651 5653 5652 5654 5655 5656 5654 5654 5653 5652 5651 5650 5649 5649 5650 5647 5648
5621 5623 5625 5628 5629 5629 5630 5631 5631 5631 5633 5635 5637 5640 5641 5642 5642 5644 5644 5647 5651 5651 5650 5651 5649 5649 5648 5647 5645 5645 5645 5643 5642
5605 5608 5611 5614 5617 5619 5622 5623 5624 5622 5620 5625 5631 5632 5633 5636 5635 5636 5639 5641 5643 5644 5646 5645 5644 5643 5643 5642 5641 5640 5639 5638 5637
5586 5588 5591 5596 5603 5608 5613 5614 5617 5614 5615 5613 5620 5624 5625 5627 5628 5630 5632 5635 5636 5637 5639 5638 5639 5638 5639 5637 5636 5636 5634 5632 5631
5568 5572 5575 5579 5586 5594 5603 5606 5609 5610 5607 5606 5610 5614 5618 5620 5623 5625 5626 5627 5630 5630 5631 5632 5631 5633 5634 5634 5632 5630 5629 5627 5625
5553 5556 5559 5562 5568 5574 5580 5589 5600 5604 5605 5601 5602 5608 5607 5610 5613 5617 5619 5619 5621 5620 5623 5623 5623 5626 5626 5628 5628 5625 5624 5622 5621
5538 5539 5541 5544 5550 5555 5560 5567 5576 5588 5595 5597 5594 5601 5602 5606 5607 5608 5612 5614 5616 5615 5615 5616 5618 5618 5619 5619 5620 5620 5618 5618 5616
5518 5518 5521 5526 5531 5535 5540 5546 5552 5564 5579 5586 5588 5591 5601 5604 5601 5601 5604 5607 5608 5610 5609 5609 5610 5610 5612 5612 5612 5613 5613 5612 5613
5498 5499 5503 5507 5512 5518 5520 5526 5532 5541 5553 5566 5578 5585 5578 5591 5592 5600 5599 5603 5603 5604 5606 5603 5602 5604 5604 5605 5605 5607 5607 5607 5605
5480 5482 5487 5491 5495 5499 5503 5507 5513 5518 5524 5534 5547 5565 5567 5569 5565 5584 5590 5593 5595 5596 5597 5597 5593 5594 5596 5596 5596 5597 5600 5602 5599